Regional Weather Roundup
Issued by NWS Cleveland, OH

Home | Current Version | Previous Version | Text Only | Print | Product List | Glossary Off
Versions: 1 2 3 4 5 6 7 8 9 10 11 12 13 14 15 16 17 18 19 20 21 22 23 24 25 26 27 28 29 30 31 32 33 34 35 36 37 38 39 40 41 42 43 44 45 46 47 48 49 50

000
ASUS41 KCLE 282010
RWRCLE
OHIO REGIONAL WEATHER ROUNDUP
NATIONAL WEATHER SERVICE WILMINGTON, OH
400 PM EDT THU AUG 28 2014

NOTE: "FAIR" INDICATES FEW OR NO CLOUDS BELOW 12,000 FEET WITH NO
SIGNIFICANT WEATHER AND/OR OBSTRUCTIONS TO VISIBILITY.

OHZ001>008-015>018-024>027-034-035-043-044-282100-
   NORTHWEST OHIO

CITY           SKY/WX    TMP DP  RH WIND       PRES   REMARKS
DEFIANCE       PTSUNNY   78  58  49 NE6       30.10F
FINDLAY        PTSUNNY   79  57  46 NE8       30.10F
TOLEDO EXPRESS MOSUNNY   74  55  51 CALM      30.11F
TOLEDO METCALF SUNNY     75  56  51 VRB5      30.13F
LIMA           MOSUNNY   78  60  53 VRB5      30.11F
$$

OHZ009>014-019>023-028>033-038-089-282100-
   NORTHEAST OHIO

CITY           SKY/WX    TMP DP  RH WIND       PRES   REMARKS
CLE-HOPKINS    MOSUNNY   69  51  52 N8        30.16S
CLE-LAKEFRONT  MOSUNNY   69  52  54 N9        30.14R
CUY CO. ARPT   MOSUNNY   70  54  56 N16       30.14F
LORAIN-ELYRIA  SUNNY     73  55  53 NE8       30.14F
ASHTABULA      SUNNY     68  49  50 N8        30.14S
AKRON-CANTON   MOSUNNY   74  52  46 N12       30.11F
WOOSTER        MOSUNNY   74  54  49 N8        30.13F
MANSFIELD      MOSUNNY   73  55  53 VRB3      30.13F
YOUNGSTOWN     MOSUNNY   71  49  45 N10       30.12F
$$

OHZ042-051>053-060>062-070>072-077>081-282100-
  SOUTHWEST OHIO

CITY           SKY/WX    TMP DP  RH WIND       PRES   REMARKS
CINC-COVINGTON MOSUNNY   83  63  50 SE3       30.06F
CINC-LUNKEN    SUNNY     85  64  49 N10       30.05F
HAMILTON       MOSUNNY   83  66  56 NE6       30.07F
DAYTON         MOSUNNY   81  63  54 E8        30.09F
WRIGHT-PAT AFB MOSUNNY   80  61  52 E7        30.08F
DAYTON GENERAL MOSUNNY   79  63  57 SE7       30.08F
WILMINGTON     SUNNY     78  60  53 E8        30.08F
$$

OHZ036-037-039>041-045>050-054>059-063>069-073>076-082>088-282100-
  CENTRAL AND SOUTHEAST OHIO

CITY           SKY/WX    TMP DP  RH WIND       PRES   REMARKS
COLUMBUS       MOSUNNY   79  58  48 NE8       30.09F
OSU AIRPORT    SUNNY     77  57  50 VRB5      30.10F
BOLTON FIELD   MOSUNNY   79  63  57 CALM      30.09F
RICKENBACK AFB MOSUNNY   80  53  39 E3        30.08F
NEWARK         MOSUNNY   76  57  51 VRB6      30.10F
MARION         MOSUNNY   75  56  51 E6        30.11F
LANCASTER      MOSUNNY   78  60  53 E7        30.10F
ZANESVILLE     SUNNY     75  55  49 NE9       30.10F
NEW PHILLY     SUNNY     74  57  55 VRB5      30.11F
$$


USA.gov is the U.S. government's official web portal to all federal, state and local government web resources and services.